Wind_Speed
28 31 35 38 40 41 40 39 38 37 38 42 47 50 54 58 63 66 68 69 71 73 74 72 69 66 66 66 65 66 66 65 64 64 66 69 72 76 77 68 53 35 16 11
27 31 35 40 43 44 43 41 39 38 38 42 46 49 53 58 63 66 67 68 70 73 73 71 68 66 65 65 64 65 66 66 65 65 66 69 72 76 77 67 51 35 17 3
26 31 35 41 45 46 45 44 43 41 42 44 46 49 53 58 62 65 66 67 69 72 72 70 67 65 65 64 63 64 65 66 66 66 67 70 72 76 77 69 53 38 23 10
28 33 38 42 46 49 48 48 48 45 45 46 47 50 53 58 62 65 66 67 68 70 71 69 66 65 64 63 62 63 64 66 66 66 67 69 71 74 77 71 57 41 29 18
31 35 38 43 47 51 52 51 53 51 49 48 49 50 53 57 62 65 66 66 67 69 70 69 66 64 63 62 61 62 63 65 66 65 66 68 70 73 75 74 63 47 35 26
31 35 40 44 47 50 53 55 57 55 53 51 50 50 53 57 62 65 65 66 66 68 69 68 65 62 61 61 60 61 62 64 64 64 65 66 69 71 74 75 70 57 42 32
30 34 38 43 47 50 52 55 58 58 55 53 51 51 52 56 61 65 65 66 65 66 67 66 64 61 60 60 59 60 61 63 63 62 63 64 67 70 72 73 72 66 53 40
32 36 40 43 47 50 52 54 57 59 57 55 53 52 53 56 61 65 66 65 65 65 65 65 63 60 59 58 58 58 60 61 61 60 61 62 64 67 69 70 70 70 64 51
31 34 38 42 46 49 52 54 56 59 59 57 54 53 53 56 60 64 66 65 63 63 64 64 62 59 57 57 56 57 58 58 58 59 59 59 61 63 66 67 68 69 68 63
30 35 39 43 46 49 52 53 56 59 60 59 55 53 53 55 59 63 65 64 62 62 63 62 61 58 56 55 54 55 55 55 56 56 57 58 59 60 62 64 66 67 67 66
31 36 39 42 46 49 52 54 56 59 61 60 56 53 53 54 58 62 64 63 62 61 61 61 60 58 55 53 52 53 53 53 53 54 55 57 58 58 59 61 63 64 65 65
34 38 42 45 48 50 52 54 56 59 62 60 56 53 52 53 57 61 63 63 61 59 60 60 59 57 54 51 50 50 50 51 50 51 52 54 56 57 58 58 59 60 62 63
36 39 42 45 48 50 52 54 56 59 62 60 56 53 52 53 55 60 62 62 60 58 58 58 58 56 54 50 49 48 48 49 49 49 49 50 52 54 55 56 56 56 57 59
38 41 43 46 48 50 52 54 56 59 61 59 55 53 52 52 54 58 61 62 60 58 56 57 56 55 53 50 48 47 47 47 47 47 47 48 49 51 52 53 54 54 54 55
39 43 45 47 49 50 52 54 56 58 61 59 56 54 53 52 52 56 60 61 60 57 55 55 55 54 52 50 47 45 45 45 45 46 46 46 47 48 49 51 51 52 52 52
40 43 46 48 50 50 52 54 56 58 60 59 56 54 53 51 51 55 58 60 59 57 55 54 53 53 52 50 47 45 43 43 44 44 44 45 45 46 46 48 48 49 49 49
43 45 47 48 50 50 51 53 56 57 59 59 56 55 53 51 51 54 57 58 58 56 54 52 52 51 50 49 47 45 43 42 42 43 43 44 44 44 45 45 46 47 48 48
46 48 49 50 51 50 51 53 55 57 58 58 56 54 52 51 50 52 56 57 57 55 53 51 50 49 49 48 46 45 43 41 41 41 42 42 43 43 44 44 44 44 45 46
48 50 51 51 51 50 51 53 55 56 57 57 55 53 52 50 49 51 54 56 55 53 52 51 49 48 47 47 46 45 44 42 40 40 40 41 42 42 42 42 42 42 43 43
50 52 52 51 51 51 51 53 55 56 57 57 54 52 50 49 48 50 53 54 53 52 52 50 48 47 46 46 45 45 44 42 41 39 38 38 39 40 40 40 41 41 41 41
49 51 51 52 52 52 53 54 56 56 57 56 53 51 49 48 47 49 52 52 52 51 50 49 47 46 45 45 45 44 44 43 42 40 39 38 37 38 38 39 39 40 40 40
49 51 51 52 53 53 54 55 56 56 56 55 51 48 47 46 46 48 51 51 51 50 49 48 47 45 44 44 45 44 43 42 42 41 40 39 37 36 36 37 38 38 39 39
49 50 51 53 53 54 56 56 56 55 55 53 50 46 45 46 45 47 49 49 49 49 48 47 45 44 43 43 44 43 42 41 42 42 41 40 38 36 35 35 35 36 37 38
50 51 52 53 54 55 56 56 55 54 54 52 48 45 44 45 44 45 48 48 47 47 47 46 44 43 43 43 43 43 42 41 41 41 42 41 40 38 36 34 33 34 35 36
51 52 53 54 54 55 55 55 53 52 52 50 47 44 44 44 43 44 46 46 46 46 46 44 43 42 42 42 42 42 42 41 40 40 41 41 41 40 38 36 33 32 32 33
52 53 53 54 54 54 54 53 52 51 51 49 45 43 43 42 42 44 45 44 44 44 44 43 42 41 41 42 42 42 42 41 39 39 40 40 40 40 39 38 35 32 31 31
52 53 53 54 54 53 53 52 50 50 49 47 44 42 42 41 41 43 43 42 42 43 43 42 41 40 40 41 41 41 41 40 39 39 39 40 40 40 39 38 36 33 30 29
Wind_Direction
16 14 13 10 7 1 355 350 345 342 338 339 342 345 347 348 349 348 348 347 346 346 346 347 347 347 347 348 349 350 351 352 351 352 353 354 356 356 356 356 357 1 20 75
15 12 12 11 9 5 360 355 350 345 343 343 346 347 348 349 350 349 348 347 347 347 348 349 349 348 348 350 351 353 355 355 355 355 356 358 0 1 2 2 2 3 4 39
14 11 9 10 8 7 3 358 354 349 347 347 348 348 349 350 350 349 348 348 348 348 349 350 350 350 350 352 353 355 357 358 358 359 360 2 4 6 7 7 7 8 6 357
10 9 9 7 7 7 7 1 358 354 351 350 349 348 349 350 350 350 349 349 349 349 350 351 351 351 352 353 355 357 359 0 1 1 3 5 8 9 11 12 13 13 14 13
3 5 5 5 5 5 5 3 0 357 354 351 349 348 348 349 351 351 350 350 349 350 351 352 352 352 353 354 356 358 359 2 3 3 5 8 10 13 15 16 18 19 21 24
357 360 0 1 2 2 1 2 360 357 355 352 349 348 347 348 351 351 351 350 350 351 352 353 353 353 353 355 357 359 0 4 5 5 7 10 12 15 18 19 21 23 24 26
351 354 356 357 358 358 358 358 357 356 354 351 349 347 347 348 350 351 351 351 351 352 353 354 354 354 354 356 358 360 2 5 7 7 9 11 14 17 20 21 23 25 26 27
347 350 353 352 354 355 354 355 355 354 353 351 349 347 346 347 349 351 352 352 352 352 354 355 355 355 355 356 359 1 4 6 9 10 11 13 16 18 21 23 25 27 28 29
340 344 346 348 350 351 352 352 352 352 351 350 348 347 346 347 349 351 352 352 352 353 354 355 356 355 356 357 360 2 5 7 10 12 13 14 17 19 22 24 26 28 30 31
334 338 343 344 347 348 349 349 349 350 349 348 348 347 346 347 348 351 352 352 353 353 355 356 356 356 356 357 0 4 6 7 10 13 15 16 17 19 21 24 26 28 30 31
329 333 338 341 343 345 346 347 347 347 347 347 347 347 346 346 348 350 352 352 353 354 355 356 357 357 357 357 1 4 6 8 10 13 15 17 18 19 20 22 25 28 30 31
325 329 334 338 340 341 343 345 345 344 346 345 346 346 346 346 347 350 352 352 353 354 355 356 357 357 357 357 0 4 7 8 11 13 15 17 17 18 20 21 23 26 28 30
319 324 330 333 335 338 340 342 343 343 344 345 345 346 346 345 346 349 351 352 353 354 355 356 357 358 357 357 360 3 7 9 11 13 15 17 18 18 19 20 22 24 27 29
314 318 324 329 332 334 336 338 340 341 344 345 346 346 346 345 345 347 350 352 353 353 354 356 356 357 358 357 359 2 6 9 11 13 14 16 17 18 19 20 21 23 25 27
308 313 319 323 327 330 333 335 337 340 343 344 345 346 345 344 344 346 349 351 352 353 354 355 356 356 358 358 358 360 4 8 11 13 14 15 16 17 17 18 20 22 23 25
301 307 313 318 322 326 329 331 335 337 341 343 344 345 344 343 343 346 349 351 352 352 353 354 355 355 358 359 358 358 1 6 9 11 13 14 15 16 16 17 19 21 22 24
296 301 307 313 317 322 326 328 332 335 338 341 342 343 343 342 343 345 348 350 351 352 353 353 354 354 356 358 358 357 359 3 6 9 11 13 15 15 16 16 17 18 20 22
289 295 301 307 312 317 322 325 329 332 336 339 340 341 341 341 342 344 347 349 350 351 352 352 353 354 355 357 358 357 358 360 2 5 8 10 13 14 16 16 16 17 18 19
284 290 296 302 308 313 317 322 326 330 333 336 338 339 340 339 340 343 346 348 349 349 351 351 351 353 354 355 357 357 357 358 359 1 3 6 9 11 13 14 15 16 16 17
278 285 292 298 303 309 314 318 323 327 330 334 335 337 338 338 338 341 344 346 348 348 349 350 349 351 353 354 355 357 357 357 357 358 358 0 3 6 8 10 12 13 14 15
276 282 289 295 300 305 310 315 320 324 328 331 332 334 335 336 336 338 342 344 346 347 348 349 348 348 351 353 354 356 357 357 357 356 356 356 357 359 1 3 6 9 10 12
276 281 288 293 298 302 307 313 318 321 325 328 329 331 333 334 334 336 339 342 344 346 347 347 347 347 348 351 353 354 355 356 356 356 355 354 353 353 354 356 359 2 5 7
274 280 285 290 295 300 306 311 316 319 322 325 326 327 330 331 332 334 337 339 342 344 345 346 346 346 347 349 351 352 353 354 354 355 355 354 353 351 350 351 353 356 359 2
273 278 283 287 292 298 304 310 314 317 319 322 323 323 326 328 329 331 335 337 339 342 343 344 345 345 346 348 349 350 351 351 352 353 354 354 354 353 351 349 349 350 353 356
270 275 279 284 290 296 302 308 312 314 316 319 319 320 322 325 326 329 332 335 337 340 341 342 343 345 346 347 348 349 349 350 350 351 352 352 352 353 352 350 348 347 349 353
267 271 276 282 288 294 300 305 309 311 313 315 316 317 319 321 323 326 330 332 335 338 340 341 343 345 345 346 346 347 348 348 348 348 349 349 350 350 351 351 349 348 348 350
264 269 274 279 285 290 297 302 306 308 310 312 313 314 316 318 320 324 327 329 333 336 338 340 343 344 345 345 345 346 346 347 347 346 347 347 347 348 349 349 349 350 349 350
Height
5866 5860 5854 5847 5840 5831 5822 5814 5806 5799 5790 5781 5770 5759 5748 5735 5722 5707 5692 5677 5662 5647 5629 5611 5594 5578 5563 5548 5532 5516 5499 5482 5466 5450 5433 5416 5396 5374 5348 5324 5305 5293 5286 5282
5865 5859 5852 5845 5838 5829 5819 5810 5802 5793 5785 5775 5765 5754 5742 5730 5716 5702 5688 5673 5658 5642 5625 5608 5591 5575 5560 5544 5529 5513 5496 5479 5463 5447 5430 5413 5393 5371 5347 5324 5305 5294 5287 5284
5864 5857 5851 5842 5835 5826 5817 5807 5798 5789 5780 5770 5760 5748 5736 5724 5711 5697 5684 5670 5655 5639 5622 5605 5588 5573 5557 5542 5527 5511 5495 5478 5462 5446 5429 5411 5392 5371 5349 5327 5308 5296 5289 5285
5859 5854 5846 5842 5831 5822 5813 5804 5794 5784 5774 5764 5754 5742 5731 5720 5707 5694 5680 5666 5651 5634 5618 5601 5585 5569 5554 5540 5525 5510 5495 5479 5462 5447 5430 5413 5395 5375 5353 5332 5313 5300 5292 5287
5854 5848 5843 5836 5826 5817 5809 5802 5791 5780 5770 5759 5748 5738 5727 5716 5704 5690 5677 5663 5647 5632 5616 5599 5583 5567 5553 5539 5524 5510 5496 5480 5464 5448 5433 5417 5400 5381 5360 5340 5321 5307 5297 5291
5850 5843 5837 5833 5824 5813 5806 5796 5788 5777 5765 5755 5744 5735 5725 5713 5700 5687 5673 5659 5644 5629 5613 5596 5581 5566 5553 5539 5525 5512 5498 5482 5466 5450 5435 5420 5404 5386 5367 5348 5331 5315 5304 5297
5847 5841 5835 5828 5819 5811 5803 5796 5784 5773 5762 5751 5741 5731 5721 5709 5697 5684 5670 5656 5641 5626 5611 5595 5580 5566 5553 5539 5525 5512 5498 5483 5469 5454 5439 5424 5408 5392 5375 5358 5342 5326 5313 5304
5842 5836 5832 5823 5815 5808 5801 5791 5780 5770 5758 5747 5736 5726 5715 5705 5694 5681 5667 5653 5639 5624 5609 5594 5579 5566 5552 5539 5526 5512 5499 5485 5472 5458 5444 5430 5415 5401 5386 5370 5355 5339 5325 5313
5839 5836 5828 5820 5813 5806 5797 5787 5777 5767 5755 5743 5732 5722 5712 5702 5691 5678 5664 5650 5636 5622 5608 5593 5579 5566 5553 5540 5527 5514 5501 5488 5476 5463 5450 5437 5424 5410 5396 5382 5367 5352 5338 5325
5835 5830 5824 5816 5809 5802 5793 5784 5774 5764 5752 5740 5729 5719 5709 5698 5688 5675 5662 5648 5634 5620 5606 5592 5579 5566 5553 5541 5528 5516 5504 5492 5480 5468 5457 5444 5431 5418 5406 5393 5379 5364 5350 5337
5830 5825 5820 5813 5805 5797 5789 5780 5770 5760 5749 5736 5725 5715 5705 5695 5684 5672 5659 5645 5632 5618 5605 5592 5579 5566 5554 5542 5530 5518 5507 5496 5484 5473 5461 5449 5437 5425 5413 5401 5388 5376 5363 5350
5824 5819 5813 5807 5800 5793 5785 5776 5766 5756 5744 5732 5721 5711 5701 5691 5681 5670 5657 5643 5630 5617 5604 5592 5579 5566 5555 5544 5532 5521 5510 5500 5489 5477 5466 5454 5442 5430 5419 5408 5396 5385 5373 5361
5817 5813 5808 5801 5795 5788 5780 5771 5762 5752 5740 5728 5717 5707 5697 5688 5678 5667 5655 5642 5629 5616 5604 5591 5579 5567 5555 5544 5534 5523 5513 5503 5492 5481 5471 5460 5449 5438 5427 5416 5405 5394 5384 5373
5811 5806 5802 5796 5789 5782 5775 5766 5757 5747 5736 5724 5713 5703 5694 5684 5674 5664 5652 5640 5627 5615 5603 5591 5579 5567 5556 5545 5535 5525 5515 5505 5495 5485 5475 5465 5455 5444 5434 5424 5414 5404 5394 5383
5804 5799 5795 5789 5783 5777 5769 5761 5752 5742 5732 5720 5710 5700 5690 5680 5671 5661 5650 5637 5625 5613 5602 5591 5579 5568 5557 5547 5536 5526 5517 5507 5498 5488 5479 5469 5459 5450 5440 5431 5421 5411 5402 5392
5798 5793 5788 5783 5777 5771 5764 5755 5747 5737 5727 5716 5705 5695 5686 5677 5667 5658 5647 5635 5623 5612 5601 5590 5579 5568 5557 5547 5538 5528 5519 5510 5501 5492 5483 5474 5464 5455 5446 5437 5428 5419 5410 5401
5789 5784 5780 5776 5770 5765 5758 5750 5741 5732 5722 5712 5701 5691 5682 5673 5663 5654 5644 5632 5621 5610 5599 5589 5579 5568 5557 5548 5539 5530 5520 5511 5503 5494 5486 5477 5469 5460 5451 5442 5434 5425 5416 5408
5779 5775 5772 5768 5763 5757 5751 5743 5735 5726 5716 5706 5696 5686 5677 5668 5660 5651 5641 5630 5619 5608 5598 5587 5577 5567 5558 5548 5539 5531 5522 5513 5504 5497 5489 5481 5472 5464 5455 5447 5439 5430 5422 5414
5770 5766 5764 5760 5755 5750 5743 5736 5728 5719 5710 5701 5690 5681 5672 5664 5656 5647 5637 5626 5616 5605 5596 5586 5576 5567 5557 5548 5539 5531 5522 5513 5505 5498 5490 5483 5475 5467 5459 5452 5443 5435 5427 5419
5761 5757 5755 5751 5746 5741 5735 5728 5720 5712 5703 5694 5685 5675 5667 5659 5651 5642 5633 5623 5613 5603 5593 5584 5575 5566 5557 5548 5539 5531 5522 5513 5505 5498 5491 5484 5477 5470 5463 5455 5448 5440 5432 5424
5751 5747 5745 5741 5737 5731 5726 5719 5712 5704 5696 5687 5678 5670 5661 5654 5646 5638 5629 5619 5610 5600 5591 5582 5573 5564 5556 5547 5539 5530 5522 5514 5506 5498 5491 5485 5478 5471 5464 5458 5450 5443 5435 5428
5738 5736 5734 5730 5726 5721 5716 5710 5704 5696 5688 5680 5672 5663 5655 5648 5640 5633 5625 5615 5606 5596 5588 5579 5571 5562 5554 5546 5537 5530 5522 5514 5507 5499 5491 5484 5478 5471 5465 5458 5452 5445 5437 5430
5725 5723 5722 5718 5714 5710 5705 5700 5694 5687 5679 5672 5664 5657 5649 5642 5635 5627 5620 5611 5602 5593 5584 5576 5568 5560 5552 5544 5536 5529 5521 5514 5507 5499 5491 5484 5477 5470 5464 5458 5451 5445 5438 5432
5711 5711 5709 5706 5702 5698 5694 5690 5684 5678 5671 5664 5657 5650 5642 5636 5629 5622 5614 5606 5597 5589 5580 5572 5565 5557 5549 5542 5534 5527 5520 5513 5506 5498 5491 5484 5476 5469 5462 5456 5450 5444 5438 5432
5698 5697 5695 5693 5690 5686 5683 5679 5674 5668 5661 5655 5648 5642 5635 5629 5622 5615 5608 5600 5593 5584 5576 5568 5561 5554 5547 5539 5532 5525 5518 5511 5504 5497 5490 5483 5475 5468 5461 5454 5448 5442 5437 5431
5684 5683 5682 5680 5677 5674 5671 5668 5663 5657 5651 5645 5639 5633 5627 5621 5615 5609 5602 5594 5587 5580 5572 5564 5557 5550 5544 5537 5530 5523 5516 5509 5502 5495 5488 5481 5474 5467 5459 5453 5446 5440 5435 5429
5669 5669 5668 5666 5664 5662 5659 5657 5652 5647 5641 5636 5631 5625 5619 5614 5608 5601 5595 5588 5581 5574 5567 5559 5553 5546 5540 5533 5527 5520 5513 5506 5499 5493 5486 5479 5472 5465 5458 5451 5444 5438 5433 5428